Regional Weather Roundup
Issued by NWS Cleveland, OH

Home | Current Version | Previous Version | Graphics & Text | Print | Product List | Glossary On
Versions: 1 2 3 4 5 6 7 8 9 10 11 12 13 14 15 16 17 18 19 20 21 22 23 24 25 26 27 28 29 30 31 32 33 34 35 36 37 38 39 40 41 42 43 44 45 46 47 48 49 50
000
ASUS41 KCLE 231102
RWRCLE
OHIO REGIONAL WEATHER ROUNDUP
NATIONAL WEATHER SERVICE CLEVELAND, OH
700 AM EDT TUE AUG 23 2016

NOTE: "FAIR" INDICATES FEW OR NO CLOUDS BELOW 12,000 FEET WITH NO
SIGNIFICANT WEATHER AND/OR OBSTRUCTIONS TO VISIBILITY.

OHZ001>008-015>018-024>027-034-035-043-044-231200-
   NORTHWEST OHIO

CITY           SKY/WX    TMP DP  RH WIND       PRES   REMARKS
DEFIANCE       CLEAR     57  53  86 CALM      30.27R
FINDLAY        CLEAR     58  52  80 SE3       30.27R
TOLEDO EXPRESS CLEAR     54  54 100 CALM      30.28R
TOLEDO EXEC    CLEAR     58  55  90 CALM      30.29R
LIMA           CLEAR     55  54  96 S5        30.29R
$$

OHZ009>014-019>023-028>033-038-089-231200-
   NORTHEAST OHIO

CITY           SKY/WX    TMP DP  RH WIND       PRES   REMARKS
CLE-HOPKINS    CLEAR     61  51  70 S3        30.31R
CLE-LAKEFRONT  CLEAR     63  53  70 SE12      30.28R
CUY CO. ARPT   CLEAR     63  54  72 S6        30.30
LORAIN-ELYRIA  CLEAR     53  51  93 CALM      30.30R
ASHTABULA      CLEAR     54  52  93 CALM      30.32R
AKRON-CANTON   CLEAR     60  50  69 CALM      30.31R
WOOSTER        CLEAR     50  49  96 CALM      30.32R
MANSFIELD      CLEAR     54  53  97 S5        30.31R
YOUNGSTOWN     PTCLDY    53  51  93 SE7       30.31R
$$

OHZ042-051>053-060>062-070>072-077>081-231200-
  SOUTHWEST OHIO

CITY           SKY/WX    TMP DP  RH WIND       PRES   REMARKS
CINC-COVINGTON PTCLDY    62  58  86 CALM      30.27R
CINC-LUNKEN    PTCLDY    57  57 100 CALM      30.28S
HAMILTON       CLEAR     55  53  93 CALM      30.29R
DAYTON         CLEAR     57  55  93 SE5       30.30R
WRIGHT-PAT AFB CLEAR     56  55  94 NE1       30.29R
DAYTON GENERAL CLEAR     57  54  89 E3        30.28R
WILMINGTON     CLEAR     57  55  93 E5        30.29R
$$

OHZ036-037-039>041-045>050-054>059-063>069-073>076-082>088-231200-
  CENTRAL AND SOUTHEAST OHIO

CITY           SKY/WX    TMP DP  RH WIND       PRES   REMARKS
COLUMBUS       CLEAR     56  55  97 E3        30.29R
OSU AIRPORT    CLEAR     57  56  96 CALM      30.29S
BOLTON FIELD   CLEAR     55  55 100 CALM      30.30R
RICKENBACK AFB NOT AVBL
NEWARK         FOG       52  52 100 CALM      30.30S VSB 1/2
MARION         CLEAR     55  52  89 CALM      30.30R
LANCASTER      PTCLDY    53  52  96 CALM      30.30R
ZANESVILLE     CLEAR     54  53  97 CALM      30.31R
NEW PHILLY     FOG       58  55  90 CALM      30.32R VSB 1/4
$$




USA.gov is the U.S. government's official web portal to all federal, state and local government web resources and services.